Location: Dalles
(50.6093°N, 1.7780°E)
Time: 12:35:19
(UTC+00:00)

Daily predictions for brighter satellites

Satellite Brightness Start Highest point End
(mag) Time Altitude Azimuth Time Altitude Azimuth Time Altitude Azimuth
Cosmos 1992 Rocket 4.1 20:04:20 10° NNW 20:09:36 70° ENE 20:14:48 10° SSE
Cosmos 2218 Rocket 4.0 20:04:03 10° S 20:10:11 72° E 20:16:20 10° NNE
Meteor 1-26 Rocket 4.5 20:05:35 10° NNW 20:11:16 74° W 20:16:45 10° S
Resurs 1-3 3.9 20:09:00 10° S 20:13:23 73° WSW 20:17:47 10° NNW
SPOT 3 Rocket 3.8 20:10:33 10° S 20:15:46 74° WSW 20:21:01 10° NNW
Cosmos 972 Rocket 4.1 20:10:35 10° NNW 20:15:47 60° ENE 20:20:39 10° SE
CZ-2C R/B 2.8 20:10:53 10° NNE 20:16:06 79° WNW 20:21:16 10° SSW
Cosmos 1980 Rocket 3.9 20:11:37 10° NNW 20:16:07 23° NE 20:20:35 10° E
Cosmos 1633 2.5 20:15:55 10° S 20:19:28 86° E 20:23:01 10° N
Cosmos 724 4.5 20:14:43 10° SW 20:20:30 81° NW 20:26:26 10° NE
CZ-2C R/B 3.8 20:18:16 10° NNE 20:23:00 84° ESE 20:27:36 10° SSW
Cosmos 1346 Rocket 3.6 20:19:15 10° SSW 20:23:09 56° WNW 20:27:06 10° N
Intercosmos 25 4.2 20:19:19 10° N 20:25:02 48° ENE 20:28:49 10° SSE
Cosmos 389 Rocket 3.1 20:24:15 10° N 20:27:31 39° ENE 20:30:38 11° SE
Cosmos 1500 Rocket 3.5 20:24:56 10° S 20:29:13 71° E 20:33:32 10° NNE
Gbstr 26 Del rocket 4.4 20:27:02 10° W 20:30:03 22° SW 20:33:01 10° SSE
Cosmos 1862 3.9 20:26:19 10° SSE 20:30:05 39° E 20:33:53 10° NNE
Sich 1 4.0 20:26:50 10° SSE 20:30:40 29° E 20:34:31 10° NNE
Cosmos 1812 3.2 20:27:10 10° N 20:30:52 43° ENE 20:34:25 11° SSE
Cosmos 2251 Rocket 3.7 20:26:25 10° S 20:31:29 53° ESE 20:36:38 10° NNE
USA 234 3.5 20:26:45 10° SE 20:33:14 65° SW 20:39:46 10° WNW
Cosmos 1697 Rocket 3.4 20:29:34 10° NNW 20:34:54 42° NE 20:39:58 11° ESE
MetOp-B 4.2 20:29:51 10° SSE 20:35:12 83° ENE 20:40:36 10° NNW
CARTOSAT-1 4.5 20:33:16 11° SE 20:36:58 35° ENE 20:40:54 10° N
IRIDIUM 104 4.3 20:34:21 10° S 20:39:30 68° E 20:44:43 10° N
Cosmos 1727 Rocket 4.2 20:33:52 10° N 20:40:14 83° W 20:46:36 10° S
Cosmos 1833 Rocket 3.8 20:36:16 10° SSE 20:40:35 23° ESE 20:44:55 10° NE
Cosmos 2228 Rocket 3.2 20:36:10 10° NNW 20:40:39 80° W 20:45:03 10° S
ATLAS 5 CENTAUR R/B 2.4 20:36:47 10° NW 20:42:17 78° NE 20:48:07 13° SE
IGS 5A 3.4 20:42:55 10° SSE 20:47:02 79° ENE 20:51:12 10° NNW
IRIDIUM 114 4.3 20:43:27 10° S 20:48:39 81° E 20:53:54 10° N
Cosmos 1441 Rocket 3.6 20:46:17 10° SSE 20:49:54 42° E 20:53:30 10° NNE
Resurs 01 Rocket 2.6 20:46:38 10° S 20:50:52 46° W 20:55:10 10° NNW
Cosmos 1805 Rocket 3.6 20:47:06 10° S 20:51:26 60° E 20:55:50 10° NNE
Meteor 2-6 Rocket 4.3 20:46:27 10° NNW 20:51:53 77° W 20:57:25 10° S
COSMOS 2406 3.7 20:46:43 10° S 20:52:01 39° ESE 20:57:19 10° NE
Landsat 7 3.8 20:50:23 10° SSE 20:55:09 89° W 20:59:57 10° NNW
Meteor 1-10 Rocket 4.3 20:51:44 10° NNW 20:57:22 83° W 21:03:04 10° S
IRIDIUM 103 4.4 20:52:34 10° S 20:57:48 86° W 21:03:03 10° N
Lacrosse 5 3.2 20:55:01 10° WNW 20:59:49 40° N 21:04:37 10° ENE
Meteor 1-27 Rocket 3.9 20:55:29 10° N 21:01:21 71° ENE 21:06:27 14° SSE
Meteor 1-4 Rocket 3.4 20:58:53 10° N 21:02:10 34° ENE 21:04:03 20° SE
Cosmos 1818 3.8 20:57:38 10° NW 21:03:06 67° NE 21:07:21 17° SE
SL-16 R/B 4.1 21:03:34 10° NNW 21:07:43 20° NE 21:11:50 10° E
Cosmos 2369 4.0 21:02:23 10° NNW 21:08:06 62° ENE 21:12:22 18° SE
Cosmos 1656 3.7 21:02:38 10° NNW 21:08:07 77° WSW 21:12:31 16° SSE
Cosmos 1934 Rocket 4.2 21:07:45 12° SSE 21:13:27 55° E 21:19:40 10° NNE
SL-8 R/B 4.0 21:10:50 10° W 21:15:31 51° SSW 21:18:33 21° SE
GP-B 3.1 21:11:30 10° N 21:15:56 66° E 21:19:12 18° S
Cosmos 1633 Rocket 3.4 21:13:53 19° SSE 21:16:48 46° E 21:21:04 10° NNE
Cosmos 1821 Rocket 4.0 21:11:24 10° S 21:17:32 90° E 21:23:46 10° N
Cosmos 2278 4.1 21:13:53 10° NNW 21:19:31 53° NE 21:23:28 19° SE
Cosmos 1707 Rocket 3.5 21:16:22 10° NNW 21:20:46 84° W 21:23:55 18° S
Cosmos 2082 Rocket 3.1 21:19:47 20° SSE 21:22:37 29° ESE 21:27:27 10° NE
ERBS 2.2 21:19:41 10° SW 21:22:58 58° SE 21:26:14 10° ENE
Cosmos 2123 Rocket 4.0 21:27:39 10° N 21:33:54 90° ESE 21:38:35 19° S
SPOT 5 2.6 21:31:08 22° S 21:33:55 81° WSW 21:38:17 10° NNW
Cosmos 2322 Rocket 4.0 21:29:28 10° NNW 21:33:59 23° NE 21:38:30 10° E
Cosmos 1470 Rocket 4.1 21:32:28 26° SE 21:34:26 40° E 21:38:36 10° NNE
Cosmos 614 Rocket 3.9 21:30:07 10° SSW 21:35:16 78° ESE 21:40:29 10° NNE
Cosmos 1535 Rocket 4.4 21:33:22 14° S 21:38:45 78° E 21:44:53 10° NNE
SPOT 1/Viking Rocket 4.3 21:34:45 13° S 21:39:14 48° W 21:44:19 10° NNW
USA 267 3.7 21:32:57 10° ENE 21:39:28 67° NNW 21:45:57 10° W
Okean 1-7 4.3 21:35:47 10° N 21:39:35 28° ENE 21:41:19 21° ESE
ERS-1 Rocket 3.2 21:36:07 18° S 21:39:46 66° WSW 21:44:48 10° NNW
Terra 1.8 21:41:06 25° SSE 21:43:56 89° WSW 21:48:44 10° NNW
Cosmos 1190 Rocket 4.1 21:41:27 18° S 21:45:13 59° ESE 21:50:27 10° NNE
Cosmos 1862 Rocket 3.5 21:41:55 10° N 21:46:26 89° E 21:48:46 28° S
Cosmos 1238 Rocket 2.6 21:49:56 42° ESE 21:50:18 44° E 21:53:14 10° NNE
Cosmos 1605 Rocket 4.0 21:46:16 21° S 21:50:24 66° E 21:56:28 10° NNE
Cosmos 2360 Rocket 4.3 21:47:25 10° NNW 21:51:33 20° NE 21:55:40 10° E
Cosmos 407 Rocket 3.5 21:48:17 12° SSW 21:53:13 81° ESE 21:58:33 10° NNE
Cosmos 405 Rocket 3.3 21:55:23 34° ESE 21:55:50 35° E 21:59:14 10° NNE
MTI 4.3 21:53:29 10° NNE 21:56:20 37° E 21:56:20 37° E
Cosmos 1980 Rocket 2.2 21:55:13 10° NNW 22:00:57 88° ENE 22:03:53 30° SSE
USA 32 4.0 21:57:33 22° S 22:01:03 85° W 22:06:20 10° N
Cosmos 1867 4.3 22:00:26 30° SE 22:01:36 33° ESE 22:06:25 10° NE
Meteor 1-25 Rocket 4.2 21:59:25 26° S 22:02:35 68° E 22:08:09 10° NNE
ATLAS 5 CENTAUR R/B 2.7 22:01:30 10° NW 22:03:49 37° NE 22:07:09 16° ESE
deb Kosmos-1763 4.2 22:06:50 48° SE 22:07:13 51° ESE 22:10:46 10° NNE
Cosmos 2242 Rocket 3.5 22:04:57 10° N 22:09:27 78° ENE 22:11:04 39° SSE
Geosat 4.0 22:08:21 33° SSE 22:10:40 76° WSW 22:15:45 10° NNW
Meteor 2-4 Rocket 4.3 22:05:39 10° N 22:11:15 47° ENE 22:13:49 29° SE
Cosmos 921 Rocket 2.9 22:07:03 10° NNW 22:11:20 73° ENE 22:12:40 42° SE
Genesis I 3.2 22:10:03 10° NW 22:13:56 73° NE 22:15:02 44° ESE
Thor Agena Rocket 4.3 22:09:21 10° NNE 22:13:57 34° E 22:15:10 30° SE
Cosmos 1933 Rocket 3.5 22:14:33 39° S 22:16:06 74° E 22:20:32 10° NNE
Cosmos 1697 Rocket 3.5 22:13:39 10° NW 22:18:53 41° WSW 22:21:41 24° SSW
ALOS 2 3.8 22:20:23 25° E 22:21:54 31° ENE 22:25:47 10° N
Cosmos 1833 Rocket 2.9 22:18:23 10° SW 22:23:59 69° WNW 22:29:39 10° NNE
Cosmos 1153 Rocket 4.4 22:21:13 30° S 22:24:27 76° E 22:30:37 10° NNE
Cosmos 1869 Rocket 4.2 22:24:33 36° ESE 22:25:16 38° E 22:29:24 10° NNE
ATLAS 5 CENTAUR R/B 3.7 22:21:51 10° WNW 22:26:44 28° WSW 22:29:39 20° SSW
Cosmos 1763 Rocket 3.7 22:23:02 10° NNW 22:28:20 63° ENE 22:30:31 35° SE
USA 238 DEB 3.9 22:28:21 31° S 22:30:58 46° ESE 22:37:29 10° NE
USA 238 3.9 22:28:31 32° S 22:31:05 45° ESE 22:37:34 10° NE
Okean 1 3.5 22:27:46 10° NNW 22:31:47 65° W 22:32:48 45° SSW
Spot 4 3.9 22:30:23 41° SE 22:32:01 71° ENE 22:36:49 10° N
Cosmos 1140 Rocket 3.8 22:28:31 15° SW 22:32:53 65° WNW 22:38:08 10° NNE
Cosmos 1703 Rocket 3.5 22:28:49 10° NNW 22:33:14 83° W 22:34:26 48° S
Cosmos 1459 Rocket 4.2 22:32:03 34° SSE 22:34:39 56° E 22:40:49 10° NNE
COSMOS 2406 4.3 22:30:48 10° WSW 22:36:17 45° NW 22:41:48 10° NNE
ATLAS 3B R/B 4.4 22:37:36 13° ESE 22:37:37 13° ESE 22:40:36 10° ENE
Iridium 4 Rocket 3.2 22:38:02 47° SSE 22:39:10 66° E 22:43:30 10° N
Cosmos 1515 3.7 22:35:31 10° NNW 22:39:22 75° W 22:39:59 59° SSW
Cosmos 1184 Rocket 4.3 22:39:47 25° WSW 22:40:56 33° WNW 22:43:58 10° N
Cosmos 676 Rocket 4.0 22:38:30 26° SSW 22:41:33 82° WNW 22:46:57 10° NNE
Lacrosse 5 2.3 22:38:25 10° WNW 22:43:27 61° NNE 22:46:55 20° E
BREEZE-M DEB (TANK) 3.5 22:44:10 10° W 22:47:56 81° S 23:01:50 10° E
SL-27 R/B 4.3 22:51:19 20° ENE 22:51:19 20° ENE 22:52:57 10° NE
SL-16 R/B 2.3 22:47:09 10° NNW 22:52:51 73° ENE 22:55:08 37° SE
Meteor 1-14 Rocket 4.3 22:52:02 33° SSW 22:54:49 81° WNW 23:00:46 10° N
Cosmos 1437 Rocket 3.0 22:52:30 10° NNW 22:56:17 53° W 22:56:44 50° SW
Cosmos 1536 4.0 22:56:52 29° E 22:56:52 29° E 23:00:18 10° NNE
Cosmos 2208 Rocket 4.5 22:52:39 10° NNW 22:57:53 54° ENE 22:59:54 34° ESE
ERBS 3.9 22:56:18 10° W 22:59:23 35° NNW 23:02:29 10° NE
MOS 1-B Rocket 3.8 22:54:56 10° NNE 23:00:53 82° WNW 23:03:32 33° SSW
Cosmos 1570 Rocket 4.2 22:57:11 10° NNW 23:02:29 68° ENE 23:04:18 41° SE
Tsikada Rocket 4.3 22:57:44 10° N 23:04:04 58° ENE 23:06:40 35° SE
Helios 1A 4.1 23:03:25 29° E 23:04:27 33° ENE 23:08:16 10° N
Cosmos 2082 Rocket 2.8 23:01:33 14° SW 23:06:23 57° NW 23:12:01 10° NNE
Cosmos 1733 Rocket 3.9 23:07:07 34° E 23:07:25 35° E 23:11:25 10° NNE
Cosmos 1741 Rocket 4.0 23:06:13 48° S 23:07:34 68° ESE 23:12:48 10° NNE
Cosmos 1242 Rocket 3.8 23:04:31 10° N 23:07:43 29° ENE 23:07:54 29° ENE
Meteor 1-13 Rocket 4.1 23:05:01 10° NNW 23:10:37 83° ENE 23:12:22 46° SSE
Cosmos 2346 Rocket 4.3 23:06:53 10° N 23:13:00 86° E 23:15:12 42° SSE
Cosmos 2219 Rocket 4.0 23:09:21 10° NNW 23:14:07 26° NE 23:18:52 10° E
Cosmos 468 Rocket 4.4 23:10:13 10° NNW 23:15:23 52° WSW 23:16:44 41° SSW
Cosmos 841 Rocket 3.4 23:10:26 10° NNW 23:15:41 81° ENE 23:17:11 48° SE
CENTAUR R/B 2.7 23:15:22 41° SSE 23:17:04 53° ESE 23:23:55 10° NE
Cosmos 44 3.7 23:12:24 10° NW 23:17:10 58° NE 23:19:18 32° ESE
Okean 1-7 4.1 23:13:15 10° NNW 23:17:13 34° W 23:18:10 30° WSW
Cosmos 2322 Rocket 2.1 23:13:06 10° NNW 23:18:50 89° NE 23:20:43 45° SSE
Cosmos 1814 Rocket 4.0 23:14:23 10° NNW 23:19:34 73° ENE 23:21:08 45° SE
CRYOSAT 2 4.4 23:15:06 10° N 23:19:58 72° W 23:21:19 47° SSW
EO 1 Del DPAF 3.3 23:16:58 10° N 23:20:43 68° WNW 23:21:02 64° WSW
Cosmos 1378 4.4 23:18:38 10° N 23:22:01 31° ENE 23:22:19 30° E
USA 267 4.1 23:15:45 10° ENE 23:22:02 51° N 23:28:20 10° WNW
Terra 4.2 23:20:10 10° WSW 23:22:23 13° W 23:24:36 10° WNW
Cosmos 2100 Rocket 4.3 23:25:14 31° SW 23:28:09 62° WNW 23:34:17 10° N
NOSS 3-2 (A) 3.4 23:25:23 28° SW 23:28:40 89° NW 23:35:26 10° NE
NOSS 3-2 (C) 3.4 23:29:18 43° S 23:31:10 66° SE 23:37:43 10° NE
Meteor 1-23 Rocket 4.3 23:30:05 10° N 23:35:57 77° ENE 23:37:52 44° SSE
Cosmos 540 Rocket 3.4 23:31:10 10° NNW 23:36:20 74° WSW 23:37:27 54° S
Cosmos 2360 Rocket 2.3 23:30:54 10° NNW 23:36:36 72° ENE 23:38:48 38° SE
Cosmos 2333 Rocket 3.4 23:34:26 10° NNW 23:39:51 39° NE 23:44:02 16° ESE
Cosmos 1980 Rocket 4.0 23:40:32 10° WNW 23:44:11 18° W 23:45:38 16° WSW
Cosmos 1867 4.1 23:41:02 18° WSW 23:44:58 57° NW 23:50:23 10° NE
Cosmos 1271 Rocket 3.4 23:42:36 10° N 23:46:12 42° ENE 23:46:24 41° E
Cosmos 1378 Rocket 3.7 23:42:22 10° N 23:46:50 66° ENE 23:47:29 57° SE
Cosmos 2061 Rocket 4.1 23:44:57 37° SSW 23:47:28 69° WNW 23:53:41 10° N
Cosmos 1743 3.6 23:47:59 39° E 23:47:59 39° E 23:51:32 10° NNE
Okean 3 4.3 23:43:56 10° NNW 23:47:54 38° W 23:48:20 37° WSW
Cosmos 1725 Rocket 4.0 23:49:36 40° SSW 23:52:02 76° W 23:58:24 10° N
Okean 2 4.4 23:50:10 10° N 23:53:58 35° ENE 23:54:43 32° E
